Year,Month,Day,Hour,Minute,Value (Times are PST for temperature in C)
2010,03,20,00,00,4.00
2010,03,20,00,01,4.00
2010,03,20,00,02,4.00
2010,03,20,00,03,4.00
2010,03,20,00,04,4.00
2010,03,20,00,05,4.00
2010,03,20,00,06,4.00
2010,03,20,00,07,4.00
2010,03,20,00,08,4.00
2010,03,20,00,09,4.00
2010,03,20,00,10,4.00
2010,03,20,00,11,4.00
2010,03,20,00,12,4.00
2010,03,20,00,16,4.00
2010,03,20,00,17,3.90
2010,03,20,00,18,3.90
2010,03,20,00,19,3.90
2010,03,20,00,20,3.90
2010,03,20,00,21,3.90
2010,03,20,00,22,3.90
2010,03,20,00,23,3.90
2010,03,20,00,24,3.90
2010,03,20,00,25,3.90
2010,03,20,00,26,3.90
2010,03,20,00,27,3.90
2010,03,20,00,28,3.90
2010,03,20,00,29,3.90
2010,03,20,00,30,3.90
2010,03,20,00,31,3.90
2010,03,20,00,32,3.80
2010,03,20,00,33,3.80
2010,03,20,00,34,3.80
2010,03,20,00,35,3.80
2010,03,20,00,36,3.80
2010,03,20,00,37,3.80
2010,03,20,00,38,3.80
2010,03,20,00,39,3.80
2010,03,20,00,40,3.80
2010,03,20,00,41,3.80
2010,03,20,00,42,3.80
2010,03,20,00,43,3.80
2010,03,20,00,44,3.80
2010,03,20,00,45,3.80
2010,03,20,00,46,3.80
2010,03,20,00,47,3.80
2010,03,20,00,48,3.80
2010,03,20,00,49,3.80
2010,03,20,00,50,3.80
2010,03,20,00,51,3.80
2010,03,20,00,52,3.80
2010,03,20,00,53,3.80
2010,03,20,00,54,3.80
2010,03,20,00,55,3.80
2010,03,20,00,56,3.80
2010,03,20,00,57,3.90
2010,03,20,00,58,3.90
2010,03,20,00,59,3.90
2010,03,20,01,00,3.90
2010,03,20,01,01,3.90
2010,03,20,01,02,4.00
2010,03,20,01,03,4.00
2010,03,20,01,04,4.00
2010,03,20,01,05,4.00
2010,03,20,01,06,4.00
2010,03,20,01,07,4.00
2010,03,20,01,08,4.00
2010,03,20,01,09,4.10
2010,03,20,01,10,4.10
2010,03,20,01,11,4.10
2010,03,20,01,12,4.10
2010,03,20,01,13,4.10
2010,03,20,01,14,4.10
2010,03,20,01,15,4.10
2010,03,20,01,16,4.10
2010,03,20,01,17,4.10
2010,03,20,01,18,4.10
2010,03,20,01,19,4.10
2010,03,20,01,20,4.10
2010,03,20,01,21,4.10
2010,03,20,01,22,4.20
2010,03,20,01,23,4.20
2010,03,20,01,24,4.20
2010,03,20,01,25,4.20
2010,03,20,01,26,4.20
2010,03,20,01,27,4.20
2010,03,20,01,28,4.20
2010,03,20,01,29,4.10
2010,03,20,01,30,4.10
2010,03,20,01,31,4.10
2010,03,20,01,32,4.10
2010,03,20,01,33,4.10
2010,03,20,01,34,4.10
2010,03,20,01,35,4.10
2010,03,20,01,36,4.10
2010,03,20,01,37,4.10
2010,03,20,01,38,4.10
2010,03,20,01,39,4.10
2010,03,20,01,40,4.10
2010,03,20,01,41,4.10
2010,03,20,01,42,4.10
2010,03,20,01,43,4.00
2010,03,20,01,44,4.00
2010,03,20,01,45,4.00
2010,03,20,01,46,4.00
2010,03,20,01,47,4.00
2010,03,20,01,48,4.00
2010,03,20,01,49,4.00
2010,03,20,01,50,4.00
2010,03,20,01,51,4.00
2010,03,20,01,52,4.00
2010,03,20,01,53,4.00
2010,03,20,01,54,4.00
2010,03,20,01,55,4.00
2010,03,20,01,56,4.00
2010,03,20,01,57,3.90
2010,03,20,01,58,3.90
2010,03,20,01,59,3.90
2010,03,20,02,00,3.90
2010,03,20,02,01,3.90
2010,03,20,02,02,4.00
2010,03,20,02,03,4.00
2010,03,20,02,04,4.00
2010,03,20,02,05,4.00
2010,03,20,02,06,4.00
2010,03,20,02,07,4.00
2010,03,20,02,08,4.00
2010,03,20,02,09,4.00
2010,03,20,02,10,4.00
2010,03,20,02,11,4.00
2010,03,20,02,12,4.00
2010,03,20,02,13,4.00
2010,03,20,02,14,4.00
2010,03,20,02,15,4.00
2010,03,20,02,16,4.00
2010,03,20,02,17,4.00
2010,03,20,02,18,4.00
2010,03,20,02,19,4.00
2010,03,20,02,20,4.00
2010,03,20,02,21,4.00
2010,03,20,02,22,4.00
2010,03,20,02,23,4.00
2010,03,20,02,24,4.00
2010,03,20,02,25,4.00
2010,03,20,02,26,4.00
2010,03,20,02,27,4.00
2010,03,20,02,28,4.00
2010,03,20,02,29,4.00
2010,03,20,02,30,4.00
2010,03,20,02,31,4.00
2010,03,20,02,32,4.00
2010,03,20,02,33,4.00
2010,03,20,02,34,4.00
2010,03,20,02,35,4.00
2010,03,20,02,36,4.00
2010,03,20,02,37,4.00
2010,03,20,02,38,4.00
2010,03,20,02,39,4.00
2010,03,20,02,40,4.00
2010,03,20,02,41,4.00
2010,03,20,02,42,4.00
2010,03,20,02,43,4.00
2010,03,20,02,44,4.00
2010,03,20,02,45,4.00
2010,03,20,02,46,4.00
2010,03,20,02,47,4.00
2010,03,20,02,48,4.00
2010,03,20,02,49,4.00
2010,03,20,02,50,4.00
2010,03,20,02,51,4.00
2010,03,20,02,52,4.00
2010,03,20,02,53,4.00
2010,03,20,02,54,4.00
2010,03,20,02,55,4.00
2010,03,20,02,56,4.00
2010,03,20,02,57,4.00
2010,03,20,02,58,4.00
2010,03,20,02,59,4.00
2010,03,20,03,00,4.00
2010,03,20,03,01,4.00
2010,03,20,03,02,4.00
2010,03,20,03,03,4.00
2010,03,20,03,04,4.00
2010,03,20,03,05,4.00
2010,03,20,03,06,4.00
2010,03,20,03,07,4.00
2010,03,20,03,08,4.00
2010,03,20,03,09,4.00
2010,03,20,03,10,4.00
2010,03,20,03,11,4.00
2010,03,20,03,12,4.00
2010,03,20,03,13,4.00
2010,03,20,03,14,4.00
2010,03,20,03,15,4.00
2010,03,20,03,16,4.00
2010,03,20,03,17,3.90
2010,03,20,03,18,3.90
2010,03,20,03,19,3.90
2010,03,20,03,20,3.90
2010,03,20,03,21,3.90
2010,03,20,03,22,3.90
2010,03,20,03,23,3.90
2010,03,20,03,24,3.90
2010,03,20,03,25,3.90
2010,03,20,03,26,3.90
2010,03,20,03,27,3.90
2010,03,20,03,28,3.90
2010,03,20,03,29,3.90
2010,03,20,03,30,3.90
2010,03,20,03,31,3.90
2010,03,20,03,32,3.80
2010,03,20,03,33,3.80
2010,03,20,03,34,3.80
2010,03,20,03,35,3.80
2010,03,20,03,36,3.80
2010,03,20,03,37,3.80
2010,03,20,03,38,3.80
2010,03,20,03,39,3.80
2010,03,20,03,40,3.80
2010,03,20,03,41,3.80
2010,03,20,03,42,3.80
2010,03,20,03,43,3.80
2010,03,20,03,44,3.80
2010,03,20,03,45,3.80
2010,03,20,03,46,3.80
2010,03,20,03,47,3.80
2010,03,20,03,48,3.80
2010,03,20,03,49,3.80
2010,03,20,03,50,3.80
2010,03,20,03,51,3.80
2010,03,20,03,52,3.80
2010,03,20,03,53,3.80
2010,03,20,03,54,3.80
2010,03,20,03,55,3.80
2010,03,20,03,56,3.80
2010,03,20,03,57,3.80
2010,03,20,03,58,3.80
2010,03,20,03,59,3.80
2010,03,20,04,00,3.80
2010,03,20,04,01,3.80
2010,03,20,04,02,3.80
2010,03,20,04,03,3.80
2010,03,20,04,04,3.80
2010,03,20,04,05,3.80
2010,03,20,04,06,3.80
2010,03,20,04,07,3.80
2010,03,20,04,08,3.80
2010,03,20,04,09,3.90
2010,03,20,04,10,3.90
2010,03,20,04,11,3.90
2010,03,20,04,12,3.90
2010,03,20,04,13,3.90
2010,03,20,04,14,3.90
2010,03,20,04,15,3.90
2010,03,20,04,16,4.00
2010,03,20,04,17,4.00
2010,03,20,04,18,4.00
2010,03,20,04,19,4.00
2010,03,20,04,20,4.00
2010,03,20,04,21,4.00
2010,03,20,04,22,4.00
2010,03,20,04,23,4.00
2010,03,20,04,24,4.00
2010,03,20,04,25,4.00
2010,03,20,04,26,4.00
2010,03,20,04,27,4.00
2010,03,20,04,28,4.00
2010,03,20,04,29,4.00
2010,03,20,04,30,4.00
2010,03,20,04,31,3.90
2010,03,20,04,32,3.90
2010,03,20,04,33,3.90
2010,03,20,04,34,3.90
2010,03,20,04,35,3.90
2010,03,20,04,36,3.90
2010,03,20,04,37,3.90
2010,03,20,04,38,3.90
2010,03,20,04,39,3.90
2010,03,20,04,40,3.90
2010,03,20,04,41,3.90
2010,03,20,04,42,3.90
2010,03,20,04,43,3.90
2010,03,20,04,44,3.90
2010,03,20,04,45,3.90
2010,03,20,04,46,3.90
2010,03,20,04,47,3.90
2010,03,20,04,48,3.90
2010,03,20,04,49,3.90
2010,03,20,04,50,3.90
2010,03,20,04,51,3.90
2010,03,20,04,52,3.90
2010,03,20,04,53,3.90
2010,03,20,04,54,3.90
2010,03,20,04,55,3.90
2010,03,20,04,56,3.90
2010,03,20,04,57,3.90
2010,03,20,04,58,3.90
2010,03,20,04,59,3.90
2010,03,20,05,00,3.90
2010,03,20,05,01,3.80
2010,03,20,05,02,3.80
2010,03,20,05,03,3.80
2010,03,20,05,04,3.80
2010,03,20,05,05,3.80
2010,03,20,05,06,3.80
2010,03,20,05,07,3.80
2010,03,20,05,08,3.80
2010,03,20,05,09,3.80
2010,03,20,05,10,3.80
2010,03,20,05,11,3.80
2010,03,20,05,12,3.80
2010,03,20,05,13,3.80
2010,03,20,05,14,3.70
2010,03,20,05,15,3.70
2010,03,20,05,16,3.70
2010,03,20,05,17,3.70
2010,03,20,05,18,3.70
2010,03,20,05,19,3.70
2010,03,20,05,20,3.60
2010,03,20,05,21,3.60
2010,03,20,05,22,3.60
2010,03,20,05,23,3.60
2010,03,20,05,24,3.60
2010,03,20,05,25,3.60
2010,03,20,05,26,3.60
2010,03,20,05,27,3.60
2010,03,20,05,28,3.60
2010,03,20,05,29,3.60
2010,03,20,05,30,3.60
2010,03,20,05,31,3.50
2010,03,20,05,32,3.50
2010,03,20,05,33,3.50
2010,03,20,05,34,3.50
2010,03,20,05,35,3.50
2010,03,20,05,36,3.50
2010,03,20,05,37,3.50
2010,03,20,05,38,3.50
2010,03,20,05,39,3.50
2010,03,20,05,40,3.50
2010,03,20,05,41,3.50
2010,03,20,05,42,3.40
2010,03,20,05,43,3.40
2010,03,20,05,44,3.40
2010,03,20,05,45,3.40
2010,03,20,05,46,3.30
2010,03,20,05,47,3.30
2010,03,20,05,48,3.30
2010,03,20,05,49,3.30
2010,03,20,05,50,3.30
2010,03,20,05,51,3.30
2010,03,20,05,52,3.30
2010,03,20,05,53,3.30
2010,03,20,05,54,3.30
2010,03,20,05,55,3.30
2010,03,20,05,56,3.30
2010,03,20,05,57,3.30
2010,03,20,05,58,3.30
2010,03,20,05,59,3.20
2010,03,20,06,00,3.20
2010,03,20,06,01,3.20
2010,03,20,06,02,3.20
2010,03,20,06,03,3.20
2010,03,20,06,04,3.20
2010,03,20,06,05,3.10
2010,03,20,06,06,3.10
2010,03,20,06,07,3.10
2010,03,20,06,08,3.10
2010,03,20,06,09,3.10
2010,03,20,06,10,3.10
2010,03,20,06,11,3.10
2010,03,20,06,12,3.10
2010,03,20,06,13,3.10
2010,03,20,06,14,3.10
2010,03,20,06,15,3.10
2010,03,20,06,16,3.10
2010,03,20,06,17,3.10
2010,03,20,06,18,3.10
2010,03,20,06,19,3.10
2010,03,20,06,20,3.10
2010,03,20,06,21,3.00
2010,03,20,06,22,2.90
2010,03,20,06,23,2.90
2010,03,20,06,24,2.90
2010,03,20,06,25,2.90
2010,03,20,06,26,2.90
2010,03,20,06,27,2.90
2010,03,20,06,28,2.90
2010,03,20,06,29,2.90
2010,03,20,06,30,2.90
2010,03,20,06,31,2.90
2010,03,20,06,32,2.90
2010,03,20,06,33,2.90
2010,03,20,06,34,2.90
2010,03,20,06,35,2.90
2010,03,20,06,36,2.90
2010,03,20,06,37,2.90
2010,03,20,06,38,2.90
2010,03,20,06,39,2.90
2010,03,20,06,40,2.90
2010,03,20,06,41,2.90
2010,03,20,06,42,2.90
2010,03,20,06,43,2.90
2010,03,20,06,44,2.90
2010,03,20,06,45,2.90
2010,03,20,06,46,2.90
2010,03,20,06,47,2.90
2010,03,20,06,48,2.90
2010,03,20,06,49,2.90
2010,03,20,06,50,2.90
2010,03,20,06,51,2.90
2010,03,20,06,52,2.90
2010,03,20,06,53,2.90
2010,03,20,06,54,2.90
2010,03,20,06,55,2.90
2010,03,20,06,56,2.90
2010,03,20,06,57,2.90
2010,03,20,06,58,2.90
2010,03,20,06,59,2.90
2010,03,20,07,00,2.90
2010,03,20,07,01,2.90
2010,03,20,07,02,2.90
2010,03,20,07,03,2.90
2010,03,20,07,04,2.90
2010,03,20,07,05,2.90
2010,03,20,07,06,2.90
2010,03,20,07,07,2.90
2010,03,20,07,08,2.90
2010,03,20,07,09,2.90
2010,03,20,07,10,2.90
2010,03,20,07,11,2.90
2010,03,20,07,12,2.90
2010,03,20,07,13,2.90
2010,03,20,07,14,2.90
2010,03,20,07,15,2.90
2010,03,20,07,16,2.90
2010,03,20,07,17,2.90
2010,03,20,07,18,2.90
2010,03,20,07,19,2.90
2010,03,20,07,20,2.90
2010,03,20,07,21,2.90
2010,03,20,07,22,2.90
2010,03,20,07,23,2.90
2010,03,20,07,24,2.90
2010,03,20,07,25,2.90
2010,03,20,07,26,2.90
2010,03,20,07,27,3.10
2010,03,20,07,28,3.10
2010,03,20,07,29,3.10
2010,03,20,07,30,3.20
2010,03,20,07,31,3.20
2010,03,20,07,32,3.30
2010,03,20,07,33,3.30
2010,03,20,07,34,3.30
2010,03,20,07,35,3.30
2010,03,20,07,36,3.30
2010,03,20,07,37,3.30
2010,03,20,07,38,3.30
2010,03,20,07,39,3.30
2010,03,20,07,40,3.40
2010,03,20,07,41,3.40
2010,03,20,07,42,3.40
2010,03,20,07,43,3.50
2010,03,20,07,44,3.50
2010,03,20,07,45,3.50
2010,03,20,07,46,3.50
2010,03,20,07,47,3.50
2010,03,20,07,48,3.50
2010,03,20,07,49,3.50
2010,03,20,07,50,3.50
2010,03,20,07,51,3.50
2010,03,20,07,52,3.50
2010,03,20,07,53,3.50
2010,03,20,07,54,3.60
2010,03,20,07,55,3.60
2010,03,20,07,56,3.60
2010,03,20,07,57,3.60
2010,03,20,07,58,3.60
2010,03,20,07,59,3.60
2010,03,20,08,00,3.60
2010,03,20,08,01,3.60
2010,03,20,08,02,3.60
2010,03,20,08,03,3.60
2010,03,20,08,04,3.60
2010,03,20,08,05,3.60
2010,03,20,08,06,3.60
2010,03,20,08,07,3.60
2010,03,20,08,08,3.60
2010,03,20,08,09,3.50
2010,03,20,08,10,3.50
2010,03,20,08,11,3.50
2010,03,20,08,12,3.50
2010,03,20,08,13,3.50
2010,03,20,08,14,3.50
2010,03,20,08,15,3.50
2010,03,20,08,16,3.50
2010,03,20,08,17,3.60
2010,03,20,08,18,3.60
2010,03,20,08,19,3.60
2010,03,20,08,20,3.60
2010,03,20,08,21,3.60
2010,03,20,08,22,3.60
2010,03,20,08,23,3.60
2010,03,20,08,24,3.60
2010,03,20,08,25,3.60
2010,03,20,08,26,3.60
2010,03,20,08,27,3.60
2010,03,20,08,28,3.60
2010,03,20,08,29,3.60
2010,03,20,08,30,3.60
2010,03,20,08,31,3.70
2010,03,20,08,32,3.70
2010,03,20,08,33,3.70
2010,03,20,08,34,3.70
2010,03,20,08,35,3.70
2010,03,20,08,36,3.70
2010,03,20,08,37,3.70
2010,03,20,08,38,3.70
2010,03,20,08,39,3.80
2010,03,20,08,40,3.80
2010,03,20,08,41,3.80
2010,03,20,08,42,3.80
2010,03,20,08,43,3.80
2010,03,20,08,44,3.80
2010,03,20,08,45,3.80
2010,03,20,08,46,3.80
2010,03,20,08,47,3.80
2010,03,20,08,48,3.90
2010,03,20,08,49,3.90
2010,03,20,08,50,4.00
2010,03,20,08,51,4.00
2010,03,20,08,52,4.00
2010,03,20,08,53,4.10
2010,03,20,08,54,4.20
2010,03,20,08,55,4.20
2010,03,20,08,56,4.30
2010,03,20,08,57,4.40
2010,03,20,08,58,4.50
2010,03,20,08,59,4.60
2010,03,20,09,00,4.70
2010,03,20,09,01,4.80
2010,03,20,09,02,4.90
2010,03,20,09,03,5.00
2010,03,20,09,04,5.10
2010,03,20,09,05,5.20
2010,03,20,09,06,5.30
2010,03,20,09,07,5.40
2010,03,20,09,08,5.40
2010,03,20,09,09,5.60
2010,03,20,09,10,5.60
2010,03,20,09,11,5.70
2010,03,20,09,12,5.80
2010,03,20,09,13,5.90
2010,03,20,09,14,6.00
2010,03,20,09,15,6.10
2010,03,20,09,16,6.20
2010,03,20,09,17,6.20
2010,03,20,09,18,6.30
2010,03,20,09,19,6.40
2010,03,20,09,20,6.50
2010,03,20,09,21,6.60
2010,03,20,09,22,6.70
2010,03,20,09,23,6.80
2010,03,20,09,24,6.80
2010,03,20,09,25,6.90
2010,03,20,09,26,7.00
2010,03,20,09,27,7.00
2010,03,20,09,28,7.10
2010,03,20,09,29,7.20
2010,03,20,09,30,7.30
2010,03,20,09,31,7.40
2010,03,20,09,32,7.50
2010,03,20,09,33,7.60
2010,03,20,09,34,7.60
2010,03,20,09,35,7.70
2010,03,20,09,36,7.70
2010,03,20,09,37,7.80
2010,03,20,09,38,7.80
2010,03,20,09,39,7.90
2010,03,20,09,40,8.00
2010,03,20,09,41,8.00
2010,03,20,09,42,8.10
2010,03,20,09,43,8.20
2010,03,20,09,44,8.20
2010,03,20,09,45,8.20
2010,03,20,09,46,8.20
2010,03,20,09,47,8.30
2010,03,20,09,48,8.40
2010,03,20,09,49,8.50
2010,03,20,09,50,8.60
2010,03,20,09,51,8.60
2010,03,20,09,52,8.70
2010,03,20,09,53,8.70
2010,03,20,09,54,8.70
2010,03,20,09,55,8.80
2010,03,20,09,56,8.80
2010,03,20,09,57,8.80
2010,03,20,09,58,8.80
2010,03,20,09,59,8.80
2010,03,20,10,00,8.80
2010,03,20,10,01,8.70
2010,03,20,10,02,8.70
2010,03,20,10,03,8.80
2010,03,20,10,04,8.80
2010,03,20,10,05,8.90
2010,03,20,10,06,9.00
2010,03,20,10,07,9.10
2010,03,20,10,08,9.10
2010,03,20,10,09,9.20
2010,03,20,10,10,9.20
2010,03,20,10,11,9.20
2010,03,20,10,12,9.20
2010,03,20,10,13,9.20
2010,03,20,10,14,9.20
2010,03,20,10,15,9.30
2010,03,20,10,16,9.30
2010,03,20,10,17,9.40
2010,03,20,10,18,9.40
2010,03,20,10,19,9.30
2010,03,20,10,20,9.30
2010,03,20,10,21,9.20
2010,03,20,10,22,9.10
2010,03,20,10,23,9.10
2010,03,20,10,24,9.00
2010,03,20,10,25,9.00
2010,03,20,10,26,8.90
2010,03,20,10,27,8.90
2010,03,20,10,28,8.80
2010,03,20,10,29,8.80
2010,03,20,10,30,8.80
2010,03,20,10,31,8.80
2010,03,20,10,32,8.90
2010,03,20,10,33,8.90
2010,03,20,10,34,9.00
2010,03,20,10,35,9.10
2010,03,20,10,36,9.10
2010,03,20,10,37,9.20
2010,03,20,10,38,9.20
2010,03,20,10,39,9.20
2010,03,20,10,40,9.30
2010,03,20,10,41,9.30
2010,03,20,10,42,9.30
2010,03,20,10,43,9.30
2010,03,20,10,44,9.20
2010,03,20,10,45,9.20
2010,03,20,10,46,9.20
2010,03,20,10,47,9.30
2010,03,20,10,48,9.30
2010,03,20,10,49,9.30
2010,03,20,10,50,9.30
2010,03,20,10,51,9.30
2010,03,20,10,52,9.30
2010,03,20,10,53,9.30
2010,03,20,10,54,9.20
2010,03,20,10,55,9.20
2010,03,20,10,56,9.20
2010,03,20,10,57,9.30
2010,03,20,10,58,9.30
2010,03,20,10,59,9.40
2010,03,20,11,00,9.40
2010,03,20,11,01,9.40
2010,03,20,11,02,9.40
2010,03,20,11,03,9.50
2010,03,20,11,04,9.50
2010,03,20,11,05,9.50
2010,03,20,11,06,9.60
2010,03,20,11,07,9.60
2010,03,20,11,08,9.70
2010,03,20,11,09,9.70
2010,03,20,11,10,9.60
2010,03,20,11,11,9.50
2010,03,20,11,12,9.40
2010,03,20,11,13,9.50
2010,03,20,11,14,9.60
2010,03,20,11,15,9.70
2010,03,20,11,16,9.80
2010,03,20,11,17,9.90
2010,03,20,11,18,10.00
2010,03,20,11,19,10.10
2010,03,20,11,20,10.10
2010,03,20,11,21,10.10
2010,03,20,11,22,10.10
2010,03,20,11,23,10.20
2010,03,20,11,24,10.20
2010,03,20,11,25,10.30
2010,03,20,11,26,10.40
2010,03,20,11,27,10.40
2010,03,20,11,28,10.40
2010,03,20,11,29,10.60
2010,03,20,11,30,10.60
2010,03,20,11,31,10.70
2010,03,20,11,32,10.90
2010,03,20,11,33,10.90
2010,03,20,11,34,10.90
2010,03,20,11,35,10.90
2010,03,20,11,36,10.90
2010,03,20,11,37,10.80
2010,03,20,11,38,10.70
2010,03,20,11,39,10.60
2010,03,20,11,40,10.50
2010,03,20,11,41,10.40
2010,03,20,11,42,10.40
2010,03,20,11,43,10.40
2010,03,20,11,44,10.40
2010,03,20,11,45,10.40
2010,03,20,11,46,10.40
2010,03,20,11,47,10.50
2010,03,20,11,48,10.60
2010,03,20,11,49,10.70
2010,03,20,11,50,10.70
2010,03,20,11,51,10.70
2010,03,20,11,52,10.80
2010,03,20,11,53,10.80
2010,03,20,11,54,10.90
2010,03,20,11,55,10.90
2010,03,20,11,56,11.10
2010,03,20,11,57,11.10
2010,03,20,11,58,11.10
2010,03,20,11,59,11.10
2010,03,20,12,00,11.00
2010,03,20,12,01,10.90
2010,03,20,12,02,10.70
2010,03,20,12,03,10.60
2010,03,20,12,04,10.60
2010,03,20,12,05,10.60
2010,03,20,12,06,10.60
2010,03,20,12,07,10.60
2010,03,20,12,08,10.60
2010,03,20,12,09,10.60
2010,03,20,12,10,10.60
2010,03,20,12,11,10.70
2010,03,20,12,12,10.80
2010,03,20,12,13,10.80
2010,03,20,12,14,10.70
2010,03,20,12,15,10.70
2010,03,20,12,16,10.70
2010,03,20,12,17,10.70
2010,03,20,12,18,10.70
2010,03,20,12,19,10.70
2010,03,20,12,20,10.60
2010,03,20,12,21,10.60
2010,03,20,12,22,10.40
2010,03,20,12,23,10.40
2010,03,20,12,24,10.50
2010,03,20,12,25,10.60
2010,03,20,12,26,10.60
2010,03,20,12,27,10.70
2010,03,20,12,28,10.90
2010,03,20,12,29,10.90
2010,03,20,12,30,11.00
2010,03,20,12,31,11.10
2010,03,20,12,32,11.10
2010,03,20,12,33,11.10
2010,03,20,12,34,11.20
2010,03,20,12,35,11.40
2010,03,20,12,36,11.50
2010,03,20,12,37,11.60
2010,03,20,12,38,11.60
2010,03,20,12,39,11.60
2010,03,20,12,40,11.60
2010,03,20,12,41,11.60
2010,03,20,12,42,11.50
2010,03,20,12,43,11.40
2010,03,20,12,44,11.30
2010,03,20,12,45,11.30
2010,03,20,12,46,11.20
2010,03,20,12,47,11.30
2010,03,20,12,48,11.30
2010,03,20,12,49,11.40
2010,03,20,12,50,11.40
2010,03,20,12,51,11.50
2010,03,20,12,52,11.60
2010,03,20,12,53,11.70
2010,03,20,12,54,11.80
2010,03,20,12,55,11.90
2010,03,20,12,56,12.00
2010,03,20,12,57,12.00
2010,03,20,12,58,12.10
2010,03,20,12,59,12.20
2010,03,20,13,00,12.20
2010,03,20,13,01,12.20
2010,03,20,13,02,12.20
2010,03,20,13,03,12.10
2010,03,20,13,04,12.00
2010,03,20,13,05,12.00
2010,03,20,13,06,11.80
2010,03,20,13,07,11.80
2010,03,20,13,08,11.80
2010,03,20,13,09,11.80
2010,03,20,13,10,11.80
2010,03,20,13,11,11.80
2010,03,20,13,12,11.80
2010,03,20,13,13,11.80
2010,03,20,13,14,11.80
2010,03,20,13,15,11.80
2010,03,20,13,16,11.80
2010,03,20,13,17,11.80
2010,03,20,13,18,11.80
2010,03,20,13,19,11.80
2010,03,20,13,20,11.80
2010,03,20,13,21,11.80
2010,03,20,13,22,11.70
2010,03,20,13,23,11.70
2010,03,20,13,24,11.60
2010,03,20,13,25,11.60
2010,03,20,13,26,11.60
2010,03,20,13,27,11.60
2010,03,20,13,28,11.60
2010,03,20,13,29,11.70
2010,03,20,13,30,11.80
2010,03,20,13,31,11.80
2010,03,20,13,32,11.90
2010,03,20,13,33,11.90
2010,03,20,13,34,11.80
2010,03,20,13,35,11.80
2010,03,20,13,36,11.80
2010,03,20,13,37,11.80
2010,03,20,13,38,11.80
2010,03,20,13,39,11.80
2010,03,20,13,40,11.80
2010,03,20,13,41,11.70
2010,03,20,13,42,11.70
2010,03,20,13,43,11.80
2010,03,20,13,44,11.70
2010,03,20,13,45,11.60
2010,03,20,13,46,11.60
2010,03,20,13,47,11.60
2010,03,20,13,48,11.50
2010,03,20,13,49,11.40
2010,03,20,13,50,11.40
2010,03,20,13,51,11.40
2010,03,20,13,52,11.30
2010,03,20,13,53,11.30
2010,03,20,13,54,11.30
2010,03,20,13,55,11.30
2010,03,20,13,56,11.40
2010,03,20,13,57,11.40
2010,03,20,13,58,11.40
2010,03,20,13,59,11.40
2010,03,20,14,00,11.40
2010,03,20,14,01,11.40
2010,03,20,14,02,11.50
2010,03,20,14,03,11.60
2010,03,20,14,04,11.60
2010,03,20,14,05,11.60
2010,03,20,14,06,11.60
2010,03,20,14,07,11.70
2010,03,20,14,08,11.80
2010,03,20,14,09,11.80
2010,03,20,14,10,12.00
2010,03,20,14,11,12.00
2010,03,20,14,12,12.00
2010,03,20,14,13,12.00
2010,03,20,14,14,11.90
2010,03,20,14,15,11.90
2010,03,20,14,16,11.90
2010,03,20,14,17,11.90
2010,03,20,14,18,11.90
2010,03,20,14,19,11.90
2010,03,20,14,20,11.90
2010,03,20,14,21,11.90
2010,03,20,14,22,11.90
2010,03,20,14,23,11.90
2010,03,20,14,24,11.80
2010,03,20,14,25,11.80
2010,03,20,14,26,11.80
2010,03,20,14,27,11.80
2010,03,20,14,28,11.80
2010,03,20,14,29,11.80
2010,03,20,14,30,11.80
2010,03,20,14,31,11.80
2010,03,20,14,32,11.80
2010,03,20,14,33,11.90
2010,03,20,14,34,11.90
2010,03,20,14,35,11.90
2010,03,20,14,36,12.00
2010,03,20,14,37,12.00
2010,03,20,14,38,12.00
2010,03,20,14,39,12.10
2010,03,20,14,40,12.10
2010,03,20,14,41,12.10
2010,03,20,14,42,12.10
2010,03,20,14,43,12.10
2010,03,20,14,44,12.10
2010,03,20,14,45,12.00
2010,03,20,14,46,12.00
2010,03,20,14,47,12.00
2010,03,20,14,48,12.00
2010,03,20,14,49,12.10
2010,03,20,14,50,12.20
2010,03,20,14,51,12.20
2010,03,20,14,52,12.20
2010,03,20,14,53,12.20
2010,03,20,14,54,12.20
2010,03,20,14,55,12.20
2010,03,20,14,56,12.20
2010,03,20,14,57,12.30
2010,03,20,14,58,12.40
2010,03,20,14,59,12.50
2010,03,20,15,00,12.60
2010,03,20,15,01,12.60
2010,03,20,15,02,12.70
2010,03,20,15,03,12.70
2010,03,20,15,04,12.70
2010,03,20,15,05,12.80
2010,03,20,15,06,12.80
2010,03,20,15,07,12.80
2010,03,20,15,08,12.80
2010,03,20,15,09,12.90
2010,03,20,15,10,13.00
2010,03,20,15,11,13.10
2010,03,20,15,12,13.10
2010,03,20,15,13,13.20
2010,03,20,15,14,13.20
2010,03,20,15,15,13.30
2010,03,20,15,16,13.30
2010,03,20,15,17,13.30
2010,03,20,15,18,13.30
2010,03,20,15,19,13.30
2010,03,20,15,20,13.30
2010,03,20,15,21,13.30
2010,03,20,15,22,13.30
2010,03,20,15,23,13.30
2010,03,20,15,24,13.30
2010,03,20,15,25,13.30
2010,03,20,15,26,13.30
2010,03,20,15,27,13.30
2010,03,20,15,28,13.30
2010,03,20,15,29,13.30
2010,03,20,15,30,13.30
2010,03,20,15,31,13.40
2010,03,20,15,32,13.40
2010,03,20,15,33,13.50
2010,03,20,15,34,13.50
2010,03,20,15,35,13.50
2010,03,20,15,36,13.50
2010,03,20,15,37,13.50
2010,03,20,15,38,13.40
2010,03,20,15,39,13.40
2010,03,20,15,40,13.40
2010,03,20,15,41,13.30
2010,03,20,15,42,13.30
2010,03,20,15,43,13.30
2010,03,20,15,44,13.20
2010,03,20,15,45,13.20
2010,03,20,15,46,13.20
2010,03,20,15,47,13.20
2010,03,20,15,48,13.30
2010,03,20,15,49,13.30
2010,03,20,15,50,13.30
2010,03,20,15,51,13.30
2010,03,20,15,52,13.30
2010,03,20,15,53,13.30
2010,03,20,15,54,13.30
2010,03,20,15,55,13.30
2010,03,20,15,56,13.30
2010,03,20,15,57,13.30
2010,03,20,15,58,13.30
2010,03,20,15,59,13.40
2010,03,20,16,00,13.40
2010,03,20,16,01,13.50
2010,03,20,16,02,13.50
2010,03,20,16,03,13.70
2010,03,20,16,04,13.80
2010,03,20,16,05,13.90
2010,03,20,16,06,14.00
2010,03,20,16,07,14.00
2010,03,20,16,08,14.00
2010,03,20,16,09,14.00
2010,03,20,16,10,14.00
2010,03,20,16,11,14.10
2010,03,20,16,12,14.10
2010,03,20,16,13,14.10
2010,03,20,16,14,14.00
2010,03,20,16,15,14.00
2010,03,20,16,16,13.90
2010,03,20,16,17,13.80
2010,03,20,16,18,13.80
2010,03,20,16,19,13.70
2010,03,20,16,20,13.70
2010,03,20,16,21,13.70
2010,03,20,16,22,13.70
2010,03,20,16,23,13.70
2010,03,20,16,24,13.70
2010,03,20,16,25,13.60
2010,03,20,16,26,13.60
2010,03,20,16,27,13.60
2010,03,20,16,28,13.60
2010,03,20,16,29,13.60
2010,03,20,16,30,13.60
2010,03,20,16,31,13.60
2010,03,20,16,32,13.60
2010,03,20,16,33,13.60
2010,03,20,16,34,13.60
2010,03,20,16,35,13.70
2010,03,20,16,36,13.70
2010,03,20,16,37,13.70
2010,03,20,16,38,13.70
2010,03,20,16,39,13.70
2010,03,20,16,40,13.70
2010,03,20,16,41,13.70
2010,03,20,16,42,13.70
2010,03,20,16,43,13.70
2010,03,20,16,44,13.70
2010,03,20,16,45,13.70
2010,03,20,16,46,13.70
2010,03,20,16,47,13.70
2010,03,20,16,48,13.60
2010,03,20,16,49,13.60
2010,03,20,16,50,13.50
2010,03,20,16,51,13.40
2010,03,20,16,52,13.30
2010,03,20,16,53,13.20
2010,03,20,16,54,13.20
2010,03,20,16,55,13.10
2010,03,20,16,56,13.00
2010,03,20,16,57,13.00
2010,03,20,16,58,12.90
2010,03,20,16,59,12.90
2010,03,20,17,00,12.80
2010,03,20,17,01,12.80
2010,03,20,17,02,12.80
2010,03,20,17,03,12.70
2010,03,20,17,04,12.70
2010,03,20,17,05,12.60
2010,03,20,17,06,12.60
2010,03,20,17,07,12.50
2010,03,20,17,08,12.50
2010,03,20,17,09,12.40
2010,03,20,17,10,12.40
2010,03,20,17,11,12.30
2010,03,20,17,12,12.30
2010,03,20,17,13,12.30
2010,03,20,17,14,12.30
2010,03,20,17,15,12.30
2010,03,20,17,16,12.20
2010,03,20,17,17,12.20
2010,03,20,17,18,12.20
2010,03,20,17,19,12.20
2010,03,20,17,20,12.10
2010,03,20,17,21,12.10
2010,03,20,17,22,12.10
2010,03,20,17,23,12.10
2010,03,20,17,24,12.10
2010,03,20,17,25,12.10
2010,03,20,17,26,12.10
2010,03,20,17,27,12.10
2010,03,20,17,28,12.00
2010,03,20,17,29,12.00
2010,03,20,17,30,12.00
2010,03,20,17,31,12.00
2010,03,20,17,32,12.00
2010,03,20,17,33,12.00
2010,03,20,17,34,12.00
2010,03,20,17,35,12.00
2010,03,20,17,36,11.90
2010,03,20,17,37,12.00
2010,03,20,17,38,11.90
2010,03,20,17,39,12.00
2010,03,20,17,40,12.00
2010,03,20,17,41,12.00
2010,03,20,17,42,12.00
2010,03,20,17,43,12.00
2010,03,20,17,44,12.00
2010,03,20,17,45,12.00
2010,03,20,17,46,12.00
2010,03,20,17,47,12.00
2010,03,20,17,48,12.00
2010,03,20,17,49,12.00
2010,03,20,17,50,12.00
2010,03,20,17,51,12.00